FW8419 Weather Reports


Display with metric or nautical units.
time (UTC)temp
F
wind
direction
speed
MPH
gust
MPH
rain 1hr
in
rain 24hr
in
rain mn
in
humidity
%
barometer
mb
20260509231124 71 275 1.0 10.0 0.00 0.00 0.00 49 1017.9
20260509230122 71 316 3.0 11.0 0.00 0.00 0.00 49 1018.0
20260509225122 71 309 2.0 6.0 0.00 0.00 0.00 50 1018.1
20260509224124 70 279 2.0 11.0 0.00 0.00 0.00 49 1018.3
20260509223122 70 263 2.0 14.0 0.00 0.00 0.00 51 1018.6
20260509222124 69 277 3.0 13.0 0.00 0.00 0.00 52 1018.6
20260509221149 69 272 3.0 16.0 0.00 0.00 0.00 51 1018.8
20260509221144 69 274 3.0 16.0 0.00 0.00 0.00 51 1018.8
20260509220122 69 274 4.0 13.0 0.00 0.00 0.00 53 1019.0
20260509215122 69 295 3.0 13.0 0.00 0.00 0.00 52 1019.0
20260509214143 69 277 3.0 13.0 0.00 0.00 0.00 52 1018.9
20260509213143 68 266 3.0 13.0 0.00 0.00 0.00 53 1019.0
20260509212122 69 296 3.0 14.0 0.00 0.00 0.00 53 1019.2
20260509211123 69 284 2.0 8.0 0.00 0.00 0.00 53 1019.2
20260509210123 68 321 3.0 13.0 0.00 0.00 0.00 54 1019.2
20260509205145 67 287 2.0 10.0 0.00 0.00 0.00 54 1019.1
20260509204122 68 283 3.0 14.0 0.00 0.00 0.00 52 1019.3
20260509203124 68 305 3.0 11.0 0.00 0.00 0.00 48 1019.5
20260509202124 67 9 3.0 10.0 0.00 0.00 0.00 48 1019.5
20260509201122 67 3 4.0 13.0 0.00 0.00 0.00 49 1019.7
20260509200122 67 11 2.0 8.0 0.00 0.00 0.00 50 1019.8
20260509195124 67 28 2.0 11.0 0.00 0.00 0.00 50 1019.8
20260509194122 67 28 2.0 10.0 0.00 0.00 0.00 48 1019.8
20260509193124 67 32 1.0 8.0 0.00 0.00 0.00 45 1020.1
20260509192122 67 5 1.0 5.0 0.00 0.00 0.00 46 1020.0
20260509191122 66 48 2.0 8.0 0.00 0.00 0.00 47 1020.4
20260509190122 66 124 2.0 8.0 0.00 0.00 0.00 50 1020.4
20260509185124 66 89 2.0 6.0 0.00 0.00 0.00 52 1020.6
20260509184143 66 89 2.0 8.0 0.00 0.00 0.00 53 1020.6
20260509183122 65 50 2.0 8.0 0.00 0.00 0.00 54 1020.6
20260509182122 65 143 1.0 6.0 0.00 0.00 0.00 55 1020.9
20260509181124 64 70 2.0 6.0 0.00 0.00 0.00 56 1021.0
20260509180122 64 77 1.0 8.0 0.00 0.00 0.00 57 1021.0
20260509175122 64 79 3.0 10.0 0.00 0.00 0.00 58 1020.9
20260509174122 63 78 3.0 10.0 0.00 0.00 0.00 59 1021.0
20260509173122 63 78 2.0 10.0 0.00 0.00 0.00 60 1021.0
20260509172122 62 86 2.0 6.0 0.00 0.00 0.00 60 1021.1
20260509171123 62 104 3.0 11.0 0.00 0.00 0.00 60 1021.2
20260509170145 62 107 2.0 11.0 0.00 0.00 0.00 61 1021.4
20260509165122 61 116 3.0 11.0 0.00 0.00 0.00 63 1021.4
20260509164124 61 107 3.0 10.0 0.00 0.00 0.00 63 1021.5
20260509163122 61 123 4.0 13.0 0.00 0.00 0.00 64 1021.5
20260509162124 60 100 2.0 11.0 0.00 0.00 0.00 66 1021.6
20260509161143 58 129 5.0 16.0 0.00 0.00 0.00 67 1021.8
20260509160143 57 127 4.0 14.0 0.00 0.00 0.00 69 1021.9
20260509155122 57 126 4.0 13.0 0.00 0.00 0.00 70 1022.0
20260509154122 56 127 3.0 13.0 0.00 0.00 0.00 72 1022.0
20260509153145 56 125 4.0 14.0 0.00 0.00 0.00 72 1022.0
20260509152145 55 128 7.0 16.0 0.00 0.00 0.00 72 1022.2
20260509151122 55 128 5.0 14.0 0.00 0.00 0.00 74 1022.2
20260509150123 55 125 6.0 14.0 0.00 0.00 0.00 74 1022.4
20260509145122 55 125 6.0 16.0 0.00 0.00 0.00 74 1022.2
20260509144122 55 127 5.0 11.0 0.00 0.00 0.00 74 1022.2
20260509143124 55 115 3.0 8.0 0.00 0.00 0.00 74 1022.2
20260509142122 54 122 3.0 11.0 0.00 0.00 0.00 74 1022.2
20260509141124 54 116 3.0 10.0 0.00 0.00 0.00 75 1022.2
20260509140122 54 126 3.0 11.0 0.00 0.00 0.00 75 1022.2
20260509135123 54 123 3.0 11.0 0.00 0.00 0.00 75 1022.2
20260509134124 54 124 1.0 5.0 0.00 0.00 0.00 76 1022.2
20260509133122 53 130 1.0 6.0 0.00 0.00 0.00 76 1022.2
20260509132124 53 132 3.0 6.0 0.00 0.00 0.00 76 1022.2
20260509131122 53 124 2.0 8.0 0.00 0.00 0.00 76 1022.2
20260509130123 53 115 2.0 8.0 0.00 0.00 0.00 77 1022.2
20260509125124 53 136 2.0 6.0 0.00 0.00 0.00 77 1022.2
20260509124122 53 126 2.0 6.0 0.00 0.00 0.00 77 1022.2
20260509123123 53 125 2.0 6.0 0.00 0.00 0.00 77 1022.2
20260509122123 53 133 3.0 6.0 0.00 0.00 0.00 78 1022.1
20260509121124 53 125 4.0 10.0 0.00 0.00 0.00 77 1022.2
20260509120124 53 126 2.0 10.0 0.00 0.00 0.00 78 1022.3
20260509115122 53 128 4.0 11.0 0.00 0.00 0.00 78 1022.4
20260509114122 53 125 4.0 11.0 0.00 0.00 0.00 78 1022.4
20260509113143 53 121 5.0 13.0 0.00 0.00 0.00 77 1022.2
20260509112122 53 128 4.0 11.0 0.00 0.00 0.00 78 1022.2
20260509111124 53 125 5.0 11.0 0.00 0.00 0.00 77 1022.3
20260509110122 53 124 4.0 11.0 0.00 0.00 0.00 77 1022.4
20260509105124 53 129 5.0 13.0 0.00 0.00 0.00 77 1022.3
20260509104145 53 127 4.0 11.0 0.00 0.00 0.00 76 1022.3
20260509103143 53 125 3.0 11.0 0.00 0.00 0.00 76 1022.2
20260509102143 53 125 4.0 13.0 0.00 0.00 0.00 77 1022.2
20260509101143 53 125 5.0 13.0 0.00 0.00 0.00 77 1022.1
20260509100122 53 124 5.0 11.0 0.00 0.00 0.00 78 1022.2
20260509095124 53 121 4.0 11.0 0.00 0.00 0.00 78 1022.2
20260509094123 54 122 3.0 10.0 0.00 0.00 0.00 77 1022.2
20260509093124 54 119 3.0 13.0 0.00 0.00 0.00 77 1022.1
20260509092124 54 106 1.0 5.0 0.00 0.00 0.00 78 1022.1
20260509091122 54 120 1.0 6.0 0.00 0.00 0.00 77 1022.1
20260509090124 53 125 3.0 8.0 0.00 0.00 0.00 77 1022.1
20260509085145 54 122 4.0 10.0 0.00 0.00 0.00 77 1022.0
20260509084122 54 125 3.0 8.0 0.00 0.00 0.00 76 1022.0
20260509083122 54 128 1.0 5.0 0.00 0.00 0.00 76 1022.1
20260509082122 54 134 1.0 5.0 0.00 0.00 0.00 76 1022.1
20260509081122 54 136 3.0 6.0 0.00 0.00 0.00 77 1022.1
20260509080123 54 125 3.0 8.0 0.00 0.00 0.00 77 1022.2
20260509075122 54 116 1.0 5.0 0.00 0.00 0.00 77 1022.2
20260509074124 54 113 0.0 5.0 0.00 0.00 0.00 76 1022.1
20260509073122 54 130 1.0 6.0 0.00 0.00 0.00 75 1022.0
20260509072123 54 125 3.0 10.0 0.00 0.00 0.00 75 1022.0
20260509071143 54 128 3.0 8.0 0.00 0.00 0.00 74 1022.0
20260509070122 54 124 3.0 6.0 0.00 0.00 0.00 73 1022.0
20260509065143 55 131 3.0 8.0 0.00 0.00 0.00 73 1022.0
20260509064143 55 124 3.0 10.0 0.00 0.00 0.00 72 1022.1
20260509063124 55 124 2.0 6.0 0.00 0.00 0.00 71 1022.0
20260509062122 55 126 3.0 8.0 0.00 0.00 0.00 71 1022.0
20260509061123 56 126 3.0 6.0 0.00 0.00 0.00 70 1022.0
20260509060124 56 113 0.0 3.0 0.00 0.00 0.00 70 1022.1
20260509055124 56 128 1.0 6.0 0.00 0.00 0.00 69 1021.9
20260509054122 56 115 1.0 5.0 0.00 0.00 0.00 68 1021.9
20260509053145 56 134 1.0 6.0 0.00 0.00 0.00 67 1021.9
20260509052122 56 127 1.0 5.0 0.00 0.00 0.00 67 1021.8
20260509051123 56 128 1.0 6.0 0.00 0.00 0.00 66 1021.8
20260509050122 57 152 1.0 8.0 0.00 0.00 0.00 66 1021.8
20260509045124 57 136 2.0 6.0 0.00 0.00 0.00 66 1021.8
20260509044124 57 146 2.0 8.0 0.00 0.00 0.00 66 1021.7
20260509043122 57 150 2.0 8.0 0.00 0.00 0.00 66 1021.6
20260509042123 57 143 2.0 10.0 0.00 0.00 0.00 65 1021.4
20260509041125 57 171 0.0 5.0 0.00 0.00 0.00 65 1021.4
20260509040143 57 147 1.0 6.0 0.00 0.00 0.00 65 1021.3
20260509035122 57 165 1.0 8.0 0.00 0.00 0.00 65 1021.3
20260509034122 57 156 2.0 13.0 0.00 0.00 0.00 64 1021.2
20260509033124 57 221 1.0 6.0 0.00 0.00 0.00 65 1021.1
20260509032145 58 223 2.0 10.0 0.00 0.00 0.00 64 1021.0
20260509031143 58 231 3.0 10.0 0.00 0.00 0.00 63 1020.9
20260509030122 58 235 2.0 11.0 0.00 0.00 0.00 62 1020.8
20260509025124 58 227 2.0 10.0 0.00 0.00 0.00 62 1020.7
20260509024122 59 235 2.0 8.0 0.00 0.00 0.00 61 1020.6
20260509023123 59 223 2.0 8.0 0.00 0.00 0.00 62 1020.5
20260509022143 59 227 2.0 10.0 0.00 0.00 0.00 61 1020.6
20260509021124 59 247 4.0 14.0 0.00 0.00 0.00 61 1020.5
20260509020123 59 242 3.0 10.0 0.00 0.00 0.00 60 1020.4
20260509015123 59 233 3.0 10.0 0.00 0.00 0.00 59 1020.5
20260509014123 60 224 3.0 13.0 0.00 0.00 0.00 58 1020.5
20260509013122 60 217 3.0 14.0 0.00 0.00 0.00 57 1020.5
20260509012124 61 174 2.0 14.0 0.00 0.00 0.00 56 1020.3
20260509011122 62 241 2.0 8.0 0.00 0.00 0.00 54 1020.4
20260509010122 63 252 1.0 8.0 0.00 0.00 0.00 53 1020.4
20260509005143 63 252 2.0 6.0 0.00 0.00 0.00 54 1020.4
20260509004122 62 201 3.0 10.0 0.00 0.00 0.00 54 1020.4
20260509003122 62 223 1.0 6.0 0.00 0.00 0.00 55 1020.4
20260509002124 61 158 3.0 13.0 0.00 0.00 0.00 57 1020.4
20260509001122 60 233 1.0 6.0 0.00 0.00 0.00 57 1020.4
20260509000122 61 220 3.0 14.0 0.00 0.00 0.00 57 1020.3
20260508235122 60 207 2.0 8.0 0.00 0.00 0.00 57 1020.3
20260508234122 60 221 2.0 11.0 0.00 0.00 0.00 58 1020.3
20260508233123 60 243 4.0 16.0 0.00 0.00 0.00 58 1020.2
20260508232145 60 228 4.0 14.0 0.00 0.00 0.00 58 1020.2